Current Version              Previous Version:    01  02  03  04  05  06  07  08  09  10  11  12  13  14  15  16  17  18  19  20  21  22  23  24  25  26  27  28  29  30  
   31  32  33  34  35  36  37  38  39  40  41  42  43  44  45  46  47  48  49  50  51  52  53  54  55  56  57  58  59  60  

[Printable]
752
ASUS44 KFWD 211510
RWRTX
NORTH TEXAS HOURLY WEATHER ROUNDUP
NATIONAL WEATHER SERVICE FORT WORTH TX
900 AM CST SUN DEC 21 2014

NOTE: "FAIR" INDICATES FEW OR NO CLOUDS BELOW 12,000 FEET WITH NO
SIGNIFICANT WEATHER AND/OR OBSTRUCTIONS TO VISIBILITY.

TXZ118-119-211600-
DALLAS/FORT WORTH METROPLEX

CITY           SKY/WX    TMP DP  RH WIND       PRES   REMARKS
DFW AIRPORT    CLOUDY    47  43  86 S12       30.09R
DALLAS LOVE    CLOUDY    48  43  82 S12       30.10S
FTW MEACHAM    CLOUDY    48  44  86 SE8       30.08S FOG
DAL-EXECUTIVE  CLOUDY    48  43  82 SE8       30.10S
FTW-ALLIANCE   CLOUDY    47  43  86 S9        30.08S
FTW-SPINKS     CLOUDY    46  45  93 SE5       30.11R FOG
ARLINGTON      CLOUDY    48  43  82 S6        30.10R
GRAND PRAIRIE  PTSUNNY   46  45  93 CALM      30.12R
ADDISON        CLOUDY    48  43  81 SE8       30.10S
MESQUITE       CLOUDY    46  45  93 SE5       30.11F FOG
LANCASTER      CLOUDY    46  42  86 SE6       30.11S
$$

TXZ091>094-102>105-117-120-121-131>134-211600-
NORTH CENTRAL TEXAS

CITY           SKY/WX    TMP DP  RH WIND       PRES   REMARKS
SHRMAN/DENISON CLOUDY    47  45  95 S8        30.10S FOG
GAINESVILLE    CLOUDY    46  43  88 S10       30.09F
BOWIE          CLOUDY    46  45  93 SE10G16   30.03F FOG
BRIDGEPORT     CLOUDY    48  46  93 S9        30.07F
DECATUR        CLOUDY    46  45  98 S10       30.06F FOG
DENTON         CLOUDY    47  43  86 S10       30.08S
MCKINNEY       CLOUDY    47  44  90 SE9       30.10S
GREENVILLE     CLOUDY    46  43  87 SE7       30.11S
ROCKWALL       CLOUDY    46  45  95 SE8       30.09F FOG
TERRELL        CLOUDY    48  43  82 SE7       30.11F
WAXAHACHIE     CLOUDY    46  46 100 SE5       30.11S FOG
CLEBURNE       CLOUDY    46  46 100 SE6       30.10S FOG
GRANBURY       CLOUDY    49  46  87 SE8       30.09F FOG
$$

TXZ083>090-098>101-113>116-127>130-139>142-154-155-211600-
WESTERN NORTH TEXAS

CITY           SKY/WX    TMP DP  RH WIND       PRES   REMARKS
WICHITA FALLS  CLOUDY    47  43  86 S12       30.00F
WF-KICKAPOO    CLOUDY    47  43  87 S7        30.02F
VERNON         CLOUDY    47  41  79 S14       29.96F
ABILENE        CLOUDY    49  44  83 S15       30.00F
BRECKENRIDGE   CLOUDY    49  44  82 S12       30.02F
GRAHAM         CLOUDY    46  45  93 SE8       30.01F FOG
MINERAL WELLS  CLOUDY    47  44  90 SE14      30.04S FOG
STEPHENVILLE   CLOUDY    47  43  84 S8        30.08S
COMANCHE       CLOUDY    47  45  91 S7        30.05F
BROWNWOOD      CLOUDY    48  43  81 S12       30.04F
COLEMAN        CLOUDY    47  45  93 S8        30.04R
BRADY          CLOUDY    46  45  93 S8        30.03F
$$

TXZ143>147-156>162-174-175-211600-
CENTRAL TEXAS

CITY           SKY/WX    TMP DP  RH WIND       PRES   REMARKS
WACO           CLOUDY    48  45  89 SE8       30.10F
WACO-TSTC      CLOUDY    48  46  93 SE6       30.11F
WACO-MCGREGOR  CLOUDY    48  43  81 S9        30.11S
HILLSBORO      CLOUDY    48  44  87 SE6       30.10S
CORSICANA      CLOUDY    47  45  93 S7        30.12F FOG
MEXIA          CLOUDY    47  46  97 SE3       30.11S
HEARNE         CLOUDY    48  47  97 CALM      30.15R FOG
CAMERON        CLOUDY    48  47  97 SE3       30.13S FOG
TEMPLE         CLOUDY    48  41  76 SE12      30.09F
KILLEEN        CLOUDY    48  46  93 S9        30.09R
KILLEEN-SKYLRK CLOUDY    48  43  81 SE8       30.09R
FORT HOOD      CLOUDY    48  46  94 SE10      30.08F
GATESVILLE     CLOUDY    48  46  93 SE6       30.10S
HAMILTON       CLOUDY    48  45  87 S8        30.08R
$$

TXZ095>097-106>112-122>126-135>138-148>153-164>167-211600-
EAST TEXAS

CITY           SKY/WX    TMP DP  RH WIND       PRES   REMARKS
PARIS          CLOUDY    45  39  81 SE8       30.13S
SULPHUR SPRNGS CLOUDY    46  43  88 SE7       30.14S
MOUNT PLEASANT CLOUDY    45  42  91 SE6       30.15F
MINEOLA        PTSUNNY   45  45 100 SE3       30.13F FOG
TYLER          CLOUDY    46  42  86 SE6       30.12F
LONGVIEW       FOG       42  40  92 CALM      30.14S VSB 1
MARSHALL       CLOUDY    44  42  94 CALM      30.17R
ATHENS         CLOUDY    45  43  93 SE3       30.11F
PALESTINE      CLOUDY    46  45  95 SE5       30.14F
JACKSONVILLE   CLOUDY    45  44  97 CALM      30.14S FOG
HENDERSON      CLOUDY    42  42 100 CALM      30.15S FOG
NACOGDOCHES    CLOUDY    43  39  87 CALM      30.15S
LUFKIN         CLOUDY    48  43  82 CALM      30.15R HAZE
$$

SUPPLEMENTAL OBSERVATIONS (CENTRAL)

CITY           SKY/WX    TMP DP  RH WIND       PRES   REMARKS
CADDO GRASSLND   N/A     46  43  87 SE7         N/A
PAT MAYSE LAKE   N/A     45  41  87 E13         N/A  WCI  38
PALESTINE        N/A     45  41  87 SE5         N/A
MCGREGOR         N/A     48  43  81 S7          N/A
TEMPLE           N/A     48  43  81 SE9         N/A
$$

SUPPLEMENTAL OBSERVATIONS (WEST)

CITY           SKY/WX    TMP DP  RH WIND       PRES   REMARKS
MILLERS CREEK    N/A     48  45  87 S14         N/A
POSSUM KINGDOM   N/A     46  41  81 SE8         N/A
LBJ GRASSLAND    N/A     46  43  87 SE9         N/A
GRANBURY         N/A     48  45  87 SE7         N/A
HAMBY            N/A     48  43  81 S15         N/A
IVIE RESERVOIR   N/A     48  43  81 S12         N/A
COLORADO BEND    N/A     48  45  87 S6          N/A
$$

SUPPLEMENTAL OBSERVATIONS (EAST)

CITY           SKY/WX    TMP DP  RH WIND       PRES   REMARKS
CLARKSVILLE      N/A     45  39  81 SE7         N/A
TEXARKANA        N/A     43  39  87 E2          N/A
LINDEN           N/A     43  37  81 E2          N/A
GILMER           N/A     45  41  87 SE3         N/A
HENDERSON        N/A     43  41  93 E1          N/A
LUFKIN           N/A     46  41  81 MISG        N/A
N SABINE NF      N/A     37  34  87 MISG        N/A
S SABINE NF      N/A     45  41  87 NE2         N/A
$$

SUPPLEMENTAL OBSERVATIONS ARE A COLLECTION OF AUTOMATED INSTRUMENTS
THAT ARE MAINTAINED BY A VARIETY OF FEDERAL AND STATE AGENCIES.
CERTAIN ELEMENTS...SUCH AS HUMIDITY VALUES AND SUSTAINED WIND
SPEEDS...MAY BE APPROXIMATED.